Regional Weather Roundup
Issued by NWS

Home | Current Version | Previous Version | Graphics & Text | Print | Product List | Glossary On
Versions: 1 2 3 4 5 6 7 8 9 10 11 12 13 14 15 16 17 18 19 20 21 22 23 24 25 26 27 28 29 30 31 32 33 34 35 36 37 38 39 40 41 42 43 44 45 46 47 48 49 50
000
ASUS43 KLOT 211700
RWRIL

ILLINOIS REGIONAL WEATHER ROUNDUP
NATIONAL WEATHER SERVICE CHICAGO/ROMEOVILLE IL
1200 PM CDT TUE OCT 21 2014

NOTE: "FAIR" INDICATES FEW OR NO CLOUDS BELOW 12,000 FEET WITH NO
SIGNIFICANT WEATHER AND/OR OBSTRUCTIONS TO VISIBILITY.

* THESE STATIONS ARE NOT UNDER NWS QUALITY CONTROL. THEY ALSO MAY NOT
  REPORT WEATHER SUCH AS PRECIPITATION OR FOG.

ILZ001-002-007-009-015-016-024-211800-
NORTHWEST ILLINOIS

CITY           SKY/WX    TMP DP  RH WIND       PRES   REMARKS
MOLINE         SUNNY     56  40  55 NE8       30.19F
STERLING*      MOSUNNY   55  39  54 NE7       30.20S
$$

ILZ003-004-008-010-011-017-018-211800-
NORTH CENTRAL ILLINOIS

CITY           SKY/WX    TMP DP  RH WIND       PRES   REMARKS
ROCKFORD       PTSUNNY   52  38  58 NE9       30.22F
$$

ILZ005-006-012>014-019>023-211800-
NORTHEAST ILLINOIS

CITY           SKY/WX    TMP DP  RH WIND       PRES   REMARKS
CHICAGO-OHARE  PTSUNNY   52  40  63 N17       30.17S
CHICAGO-MIDWAY CLOUDY    53  42  66 N17       30.16S
AURORA         PTSUNNY   53  38  56 NE14      30.18S
WAUKEGAN       CLOUDY    48  39  71 N9        30.19R
DUPAGE AIRPORT PTSUNNY   52  41  66 N12       30.17S
WHEELING       CLOUDY    53  40  61 N9G21     30.18S
NORTHERLY ISL    N/A     51  44  77 N12         N/A
$$

LMZ740>746-211800-
SOUTHERN LAKE MICHIGAN

STATION/POSITION SKY/WX   TEMP    WIND        PRES    VSBY  WAVE
                          AIR SEA DIR/SP/G                  HT/PER
                          (F)     (DEG/KT/KT) (MB)    (MI)  (FT/S)
SOUTHERN BUOY              50 54  360/ 19/ 23 1020.8R         7/ 7
WAUKEGAN HARBOR            49      10/ 18/ 21   N/A
HARRISON CRIB              49     340/ 25/ 28   N/A
BURNHAM HARBOR             50     320/ 14/ 19   N/A
CALUMET HARBOR             51     340/ 16/ 23 1020.0R
MICHIGAN CITY              51     340/ 24/ 28   N/A
$$

ILZ025>027-034>036-040-047-049-050-058-095>099-211800-
WEST-CENTRAL ILLINOIS

CITY           SKY/WX    TMP DP  RH WIND       PRES   REMARKS
QUINCY         SUNNY     59  41  51 E9        30.16F
$$

ILZ028>032-037-038-041>044-048-051>054-059>061-211800-
CENTRAL ILLINOIS

CITY           SKY/WX    TMP DP  RH WIND       PRES   REMARKS
DECATUR        MOSUNNY   57  43  59 N10G20    30.15S
PEORIA         MOSUNNY   57  39  51 E9        30.18R
SPRINGFIELD    SUNNY     60  43  53 NE9       30.17R
TAYLORVILLE    NOT AVBL
$$

ILZ033-039-045-046-055>057-062-063-211800-
EAST-CENTRAL ILLINOIS

CITY           SKY/WX    TMP DP  RH WIND       PRES   REMARKS
CHAMPAIGN      PTSUNNY   57  41  55 N13       30.14S
MATTOON        PTSUNNY   59  44  57 N12       30.13R
$$

ILZ079-100>102-211800-
SOUTHWEST ILLINOIS

CITY           SKY/WX    TMP DP  RH WIND       PRES   REMARKS
ALTON          SUNNY     63  41  45 N6        30.15R
BELLEVILLE     SUNNY     65  47  52 N6        30.13S
CAHOKIA*       SUNNY     64  47  53 NE7       30.14S
$$

ILZ064>066-069>071-074>076-080>082-084>086-088>090-092>094-211800-
SOUTH-CENTRAL ILLINOIS

CITY           SKY/WX    TMP DP  RH WIND       PRES   REMARKS
CARBONDALE     SUNNY     66  47  50 VRB7      30.12R
MARION         SUNNY     64  50  59 NW9       30.12S
MT. VERNON     SUNNY     63  46  55 N6        30.13S
$$

ILZ067-068-072-073-078-083-087-091-211800-
SOUTHEAST ILLINOIS

CITY           SKY/WX    TMP DP  RH WIND       PRES   REMARKS
LAWRENCEVILLE  CLOUDY    59  45  59 N13       30.12S
$$

ABBREVIATIONS USED IN REMARKS
   TC - TEMPERATURE IN CELSIUS
  WCI - WIND CHILL INDEX
   HX - HEAT INDEX
  VSB - VISIBILITY
$$




USA.gov is the U.S. government's official web portal to all federal, state and local government web resources and services.